Jefferson, GA

12:52 PM EDT on August 18, 2017 (GMT -0400)
Jefferson

Weather History for K19A - November, 2013

Change the Weather History Date:

Saturday, November 9, 2013

  Actual Average (KWDR) Record (KWDR)
Temperature  
Mean Temperature 47 °F -  
Max Temperature 59 °F 65 °F 78 °F (1986)
Min Temperature 35 °F 41 °F 10 °F (2000)
Degree Days  
Heating Degree Days 18    
Moisture  
Dew Point 26 °F    
Average Humidity 47    
Maximum Humidity 75    
Minimum Humidity 17    
Precipitation  
Precipitation 0.00 in - - ()
Sea Level Pressure  
Sea Level Pressure 30.30 in    
Wind  
Wind Speed 1 mph (SE)    
Max Wind Speed 6 mph    
Max Gust Speed -    
Visibility 10 miles    
Events      
Averages and records for this station are not official NWS values.
T = Trace of Precipitation, MM = Missing Value Source: NWS Daily Summary

Daily Weather History Graph

Daily Weather History Graph

Search for Another Location

Airport or City:

Trip Planner

Search our weather history database for the weather conditions in past years. The results will help you decide how hot, cold, wet, or windy it might be!

Date:

Astronomy

Nov. 09, 2013 Rise Set
Actual Time 7:01 AM EST 5:34 PM EST
Civil Twilight 6:35 AM EST 6:00 PM EST
Nautical Twilight 6:05 AM EST 6:30 PM EST
Astronomical Twilight 5:35 AM EST 6:59 PM EST
Moon 12:40 PM EST (11/9) 11:59 PM EST (11/9)
Length of Visible Light 11h 25m
Length of Day
10h 32m
Waxing Crescent, 44% of the Moon is Illuminated
Nov 9
Waxing Crescent
Nov 10
First Quarter
Nov 17
Full
Nov 25
Last Quarter
Dec 2
New

Hourly Weather History & Observations

Time (EST) Temp. Windchill Dew Point Humidity Pressure Visibility Wind Dir Wind Speed Gust Speed Precip Events Conditions
12:15 AM 41.0 °F - 28.4 °F 61% 30.28 in 10.0 mi Calm Calm - N/A   Clear
12:35 AM 41.0 °F - 28.4 °F 61% 30.29 in 10.0 mi Calm Calm - N/A   Clear
12:55 AM 41.0 °F - 30.2 °F 65% 30.29 in 10.0 mi Calm Calm - N/A   Clear
1:15 AM 41.0 °F - 28.4 °F 61% 30.30 in 10.0 mi Calm Calm - N/A   Clear
1:35 AM 41.0 °F 39.0 °F 30.2 °F 65% 30.29 in 10.0 mi ENE 3.5 mph - N/A   Clear
1:55 AM 41.0 °F - 30.2 °F 65% 30.29 in 10.0 mi Calm Calm - N/A   Clear
2:15 AM 39.2 °F - 30.2 °F 70% 30.30 in 10.0 mi Calm Calm - N/A   Clear
2:35 AM 41.0 °F - 30.2 °F 65% 30.30 in 10.0 mi Calm Calm - N/A   Clear
2:55 AM 39.2 °F - 30.2 °F 70% 30.31 in 10.0 mi Calm Calm - N/A   Clear
3:15 AM 39.2 °F - 30.2 °F 70% 30.31 in 10.0 mi Calm Calm - N/A   Clear
3:35 AM 39.2 °F - 30.2 °F 70% 30.31 in 10.0 mi Calm Calm - N/A   Clear
3:55 AM 37.4 °F - 30.2 °F 75% 30.31 in 10.0 mi Calm Calm - N/A   Clear
4:15 AM 37.4 °F - 30.2 °F 75% 30.31 in 10.0 mi Calm Calm - N/A   Clear
4:35 AM 39.2 °F - 28.4 °F 65% 30.31 in 10.0 mi Calm Calm - N/A   Clear
4:55 AM 37.4 °F - 28.4 °F 70% 30.31 in 10.0 mi Calm Calm - N/A   Clear
5:15 AM 39.2 °F - 28.4 °F 65% 30.33 in 10.0 mi Calm Calm - N/A   Clear
5:35 AM 37.4 °F - 28.4 °F 70% 30.33 in 10.0 mi Calm Calm - N/A   Clear
5:55 AM 37.4 °F - 28.4 °F 70% 30.33 in 10.0 mi Calm Calm - N/A   Clear
6:15 AM 37.4 °F - 28.4 °F 70% 30.33 in 10.0 mi Calm Calm - N/A   Clear
6:35 AM 37.4 °F - 28.4 °F 70% 30.34 in 10.0 mi Calm Calm - N/A   Clear
6:55 AM 37.4 °F - 28.4 °F 70% 30.34 in 10.0 mi Calm Calm - N/A   Clear
7:15 AM 35.6 °F - 28.4 °F 75% 30.35 in 10.0 mi Calm Calm - N/A   Clear
7:35 AM 35.6 °F - 28.4 °F 75% 30.35 in 10.0 mi Calm Calm - N/A   Clear
7:55 AM 37.4 °F - 28.4 °F 70% 30.35 in 10.0 mi Calm Calm - N/A   Clear
8:15 AM 42.8 °F 41.1 °F 23.0 °F 46% 30.35 in 10.0 mi ENE 3.5 mph - N/A   Clear
8:35 AM 44.6 °F 42.2 °F 23.0 °F 43% 30.36 in 10.0 mi ENE 4.6 mph - N/A   Clear
8:55 AM 46.4 °F 45.2 °F 23.0 °F 40% 30.37 in 10.0 mi ENE 3.5 mph - N/A   Clear
9:15 AM 48.2 °F - 23.0 °F 37% 30.37 in 10.0 mi East 3.5 mph - N/A   Clear
9:35 AM 50.0 °F - 23.0 °F 35% 30.37 in 10.0 mi Calm Calm - N/A   Clear
9:55 AM 50.0 °F - 23.0 °F 35% 30.36 in 10.0 mi Calm Calm - N/A   Clear
10:15 AM 51.8 °F - 23.0 °F 33% 30.36 in 10.0 mi Calm Calm - N/A   Clear
10:35 AM 53.6 °F - 21.2 °F 28% 30.36 in 10.0 mi Calm Calm - N/A   Clear
10:55 AM 53.6 °F - 21.2 °F 28% 30.35 in 10.0 mi Calm Calm - N/A   Clear
11:15 AM 53.6 °F - 19.4 °F 26% 30.35 in 10.0 mi SW 4.6 mph - N/A   Clear
11:35 AM 55.4 °F - 17.6 °F 23% 30.35 in 10.0 mi SSE 4.6 mph - N/A   Clear
11:55 AM 55.4 °F - 17.6 °F 23% 30.34 in 10.0 mi South 4.6 mph - N/A   Clear
12:15 PM 55.4 °F - 17.6 °F 23% 30.33 in 10.0 mi SSE 3.5 mph - N/A   Clear
12:35 PM 55.4 °F - 17.6 °F 23% 30.32 in 10.0 mi WSW 3.5 mph - N/A   Clear
12:55 PM 57.2 °F - 15.8 °F 20% 30.31 in 10.0 mi Calm Calm - N/A   Clear
1:15 PM 57.2 °F - 15.8 °F 20% 30.30 in 10.0 mi Calm Calm - N/A   Clear
1:35 PM 59.0 °F - 14.0 °F 17% 30.30 in 10.0 mi Calm Calm - N/A   Clear
1:55 PM 59.0 °F - 14.0 °F 17% 30.29 in 10.0 mi Calm Calm - N/A   Clear
2:15 PM 57.2 °F - 14.0 °F 18% 30.30 in 10.0 mi Calm Calm - N/A   Clear
2:35 PM 57.2 °F - 15.8 °F 20% 30.29 in 10.0 mi Calm Calm - N/A   Clear
2:55 PM 57.2 °F - 17.6 °F 21% 30.29 in 10.0 mi WNW 3.5 mph - N/A   Clear
3:15 PM 57.2 °F - 17.6 °F 21% 30.29 in 10.0 mi Calm Calm - N/A   Clear
3:35 PM 57.2 °F - 14.0 °F 18% 30.28 in 10.0 mi Calm Calm - N/A   Clear
3:55 PM 57.2 °F - 19.4 °F 23% 30.28 in 10.0 mi Calm Calm - N/A   Clear
4:15 PM 55.4 °F - 21.2 °F 26% 30.28 in 10.0 mi Calm Calm - N/A   Clear
4:35 PM 55.4 °F - 23.0 °F 29% 30.24 in 10.0 mi Calm Calm - N/A   Clear
4:55 PM 55.4 °F - 24.8 °F 31% 30.23 in 10.0 mi Calm Calm - N/A   Clear
5:15 PM 53.6 °F - 28.4 °F 38% 30.23 in 10.0 mi Calm Calm - N/A   Clear
5:35 PM 55.4 °F - 28.4 °F 36% 30.27 in 10.0 mi SW 5.8 mph - N/A   Clear
5:55 PM 53.6 °F - 30.2 °F 41% 30.27 in 10.0 mi Calm Calm - N/A   Clear
6:15 PM 51.8 °F - 32.0 °F 47% 30.27 in 10.0 mi Calm Calm - N/A   Clear
6:35 PM 51.8 °F - 32.0 °F 47% 30.25 in 10.0 mi Calm Calm - N/A   Clear
6:55 PM 51.8 °F - 32.0 °F 47% 30.25 in 10.0 mi Calm Calm - N/A   Scattered Clouds
7:15 PM 51.8 °F - 32.0 °F 47% 30.26 in 10.0 mi Calm Calm - N/A   Clear
7:35 PM 50.0 °F - 33.8 °F 54% 30.28 in 10.0 mi Calm Calm - N/A   Clear
7:55 PM 51.8 °F - 32.0 °F 47% 30.26 in 10.0 mi Calm Calm - N/A   Clear
8:15 PM 51.8 °F - 32.0 °F 47% 30.27 in 10.0 mi Calm Calm - N/A   Clear
8:35 PM 50.0 °F - 33.8 °F 54% 30.27 in 10.0 mi Calm Calm - N/A   Clear
9:35 PM 50.0 °F - 32.0 °F 50% 30.26 in 10.0 mi Calm Calm - N/A   Clear
9:55 PM 48.2 °F - 33.8 °F 58% 30.26 in 10.0 mi Calm Calm - N/A   Clear
10:15 PM 50.0 °F - 33.8 °F 54% 30.27 in 10.0 mi Calm Calm - N/A   Mostly Cloudy
10:35 PM 50.0 °F - 32.0 °F 50% 30.26 in 10.0 mi Calm Calm - N/A   Mostly Cloudy
10:55 PM 50.0 °F - 32.0 °F 50% 30.26 in 10.0 mi Calm Calm - N/A   Overcast
11:15 PM 48.2 °F - 32.0 °F 54% 30.26 in 10.0 mi Calm Calm - N/A   Scattered Clouds
11:35 PM 46.4 °F - 32.0 °F 57% 30.25 in 10.0 mi Calm Calm - N/A   Clear
11:55 PM 46.4 °F - 32.0 °F 57% 30.25 in 10.0 mi Calm Calm - N/A   Clear